• en Belgique
  • Liste des pays
  • À 7 jours
  • Température de l'eau
  • Carte satellitaire
  • Carte météo
  • Widgets météo
  • user-avatar
    Se connecter

    Météo par heure à Quito

    Ce jour, 22 Juin, Vendredi

    Heure Température Précipitation Vent Pression Humidité
    00:00 +14°C° 0 mm 1 m/s 624 mmHg 42%
    01:00 +13°C° 0 mm 1 m/s 624 mmHg 45%
    02:00 +12°C° 0 mm 1 m/s 624 mmHg 47%
    03:00 +12°C° 0 mm 1 m/s 624 mmHg 50%
    04:00 +11°C° 0 mm 1 m/s 624 mmHg 53%
    05:00 +11°C° 0 mm 1 m/s 624 mmHg 54%
    06:00 +11°C° 0 mm 1 m/s 624 mmHg 55%
    07:00 +12°C° 0 mm 1 m/s 625 mmHg 53%
    08:00 +15°C° 0 mm 2 m/s 626 mmHg 45%
    09:00 +18°C° 0 mm 2 m/s 627 mmHg 38%
    10:00 +22°C° 0 mm 3 m/s 627 mmHg 31%
    11:00 +24°C° 0 mm 3 m/s 627 mmHg 28%
    12:00 +25°C° 0 mm 2 m/s 627 mmHg 25%
    13:00 +26°C° 0 mm 2 m/s 627 mmHg 23%
    14:00 +26°C° 0 mm 2 m/s 626 mmHg 23%
    15:00 +26°C° 0 mm 1 m/s 626 mmHg 23%
    16:00 +25°C° 0 mm 1 m/s 625 mmHg 23%
    17:00 +23°C° 0 mm 1 m/s 625 mmHg 27%
    18:00 +20°C° 0 mm 1 m/s 624 mmHg 31%
    19:00 +18°C° 0 mm 1 m/s 624 mmHg 36%
    20:00 +16°C° 0 mm 1 m/s 624 mmHg 36%
    21:00 +16°C° 0 mm 1 m/s 624 mmHg 37%
    22:00 +15°C° 0 mm 1 m/s 624 mmHg 37%
    23:00 +14°C° 0 mm 1 m/s 624 mmHg 39%

    Demain, 23 Juin, Samedi

    Heure Température Précipitation Vent Pression Humidité
    00:00 +14°C° 0 mm 1 m/s 624 mmHg 40%
    01:00 +13°C° 0 mm 1 m/s 624 mmHg 42%
    02:00 +13°C° 0 mm 1 m/s 624 mmHg 44%
    03:00 +12°C° 0 mm 1 m/s 623 mmHg 46%
    04:00 +11°C° 0 mm 1 m/s 623 mmHg 49%
    05:00 +12°C° 0 mm 1 m/s 623 mmHg 50%
    06:00 +12°C° 0 mm 1 m/s 623 mmHg 51%
    07:00 +12°C° 0 mm 1 m/s 624 mmHg 53%
    08:00 +15°C° 0 mm 2 m/s 625 mmHg 46%
    09:00 +18°C° 0 mm 3 m/s 625 mmHg 39%
    10:00 +21°C° 0 mm 3 m/s 626 mmHg 32%
    11:00 +22°C° 0 mm 3 m/s 626 mmHg 29%
    12:00 +25°C° 0 mm 3 m/s 626 mmHg 27%
    13:00 +26°C° 0 mm 2 m/s 626 mmHg 24%
    14:00 +26°C° 0 mm 2 m/s 625 mmHg 24%
    15:00 +26°C° 0 mm 1 m/s 625 mmHg 24%
    16:00 +26°C° 0 mm 1 m/s 624 mmHg 24%
    17:00 +23°C° 0 mm 1 m/s 624 mmHg 28%
    18:00 +21°C° 0 mm 1 m/s 623 mmHg 33%
    19:00 +18°C° 0 mm 1 m/s 623 mmHg 37%
    20:00 +16°C° 0 mm 1 m/s 623 mmHg 38%
    21:00 +16°C° 0 mm 1 m/s 623 mmHg 38%
    22:00 +15°C° 0 mm 1 m/s 624 mmHg 39%
    23:00 +15°C° 0 mm 1 m/s 623 mmHg 41%

    Après-demain, 24 Juin, Dimanche

    Heure Température Précipitation Vent Pression Humidité
    00:00 +14°C° 0 mm 1 m/s 623 mmHg 43%
    01:00 +13°C° 0 mm 1 m/s 623 mmHg 45%
    02:00 +12°C° 0 mm 1 m/s 622 mmHg 47%
    03:00 +12°C° 0 mm 1 m/s 622 mmHg 49%
    04:00 +11°C° 0 mm 1 m/s 622 mmHg 52%
    05:00 +11°C° 0 mm 1 m/s 622 mmHg 53%
    06:00 +11°C° 0 mm 1 m/s 622 mmHg 54%
    07:00 +12°C° 0 mm 1 m/s 623 mmHg 55%
    08:00 +15°C° 0 mm 2 m/s 624 mmHg 47%
    09:00 +18°C° 0 mm 2 m/s 625 mmHg 39%
    10:00 +21°C° 0 mm 3 m/s 626 mmHg 31%
    11:00 +24°C° 0 mm 3 m/s 626 mmHg 28%
    12:00 +25°C° 0 mm 2 m/s 626 mmHg 26%
    13:00 +27°C° 0 mm 2 m/s 626 mmHg 23%
    14:00 +26°C° 0 mm 2 m/s 625 mmHg 23%
    15:00 +26°C° 0 mm 1 m/s 624 mmHg 23%
    16:00 +26°C° 0 mm 1 m/s 624 mmHg 23%
    17:00 +23°C° 0 mm 1 m/s 623 mmHg 28%
    18:00 +21°C° 0 mm 1 m/s 623 mmHg 32%
    19:00 +18°C° 0 mm 1 m/s 623 mmHg 36%
    20:00 +18°C° 0 mm 1 m/s 623 mmHg 37%
    21:00 +16°C° 0 mm 1 m/s 623 mmHg 37%
    22:00 +16°C° 0 mm 1 m/s 623 mmHg 38%
    23:00 +15°C° 0 mm 1 m/s 623 mmHg 39%

    25 Juin, Lundi

    Heure Température Précipitation Vent Pression Humidité
    00:00 +15°C° 0 mm 1 m/s 623 mmHg 40%
    01:00 +14°C° 0 mm 1 m/s 623 mmHg 41%
    02:00 +13°C° 0 mm 1 m/s 622 mmHg 43%
    03:00 +13°C° 0 mm 1 m/s 622 mmHg 46%
    04:00 +12°C° 0 mm 1 m/s 622 mmHg 48%
    05:00 +12°C° 0 mm 1 m/s 622 mmHg 49%
    06:00 +12°C° 0 mm 1 m/s 622 mmHg 49%
    07:00 +12°C° 0 mm 1 m/s 623 mmHg 50%
    08:00 +15°C° 0 mm 1 m/s 624 mmHg 43%
    09:00 +18°C° 0 mm 2 m/s 625 mmHg 36%
    10:00 +22°C° 0 mm 3 m/s 626 mmHg 29%
    11:00 +24°C° 0 mm 2 m/s 626 mmHg 27%
    12:00 +26°C° 0 mm 2 m/s 625 mmHg 24%
    13:00 +27°C° 0 mm 2 m/s 625 mmHg 22%
    14:00 +27°C° 0 mm 1 m/s 625 mmHg 22%
    15:00 +27°C° 0 mm 1 m/s 624 mmHg 23%
    16:00 +26°C° 0 mm 1 m/s 624 mmHg 23%
    17:00 +24°C° 0 mm 1 m/s 623 mmHg 27%
    18:00 +21°C° 0 mm 1 m/s 623 mmHg 31%
    19:00 +19°C° 0 mm 1 m/s 623 mmHg 35%
    20:00 +18°C° 0 mm 1 m/s 623 mmHg 36%
    21:00 +18°C° 0 mm 1 m/s 623 mmHg 37%
    22:00 +16°C° 0 mm 1 m/s 623 mmHg 38%
    23:00 +16°C° 0 mm 1 m/s 623 mmHg 38%

    26 Juin, Mardi

    Heure Température Précipitation Vent Pression Humidité
    00:00 +15°C° 0 mm 1 m/s 623 mmHg 39%
    01:00 +15°C° 0 mm 1 m/s 622 mmHg 40%
    02:00 +14°C° 0 mm 1 m/s 622 mmHg 42%
    03:00 +13°C° 0 mm 1 m/s 622 mmHg 44%
    04:00 +13°C° 0 mm 1 m/s 622 mmHg 46%
    05:00 +13°C° 0 mm 1 m/s 622 mmHg 47%
    06:00 +13°C° 0 mm 1 m/s 622 mmHg 48%
    07:00 +13°C° 0 mm 1 m/s 623 mmHg 49%
    08:00 +16°C° 0 mm 2 m/s 624 mmHg 42%
    09:00 +19°C° 0 mm 2 m/s 625 mmHg 36%
    10:00 +24°C° 0 mm 3 m/s 626 mmHg 29%
    11:00 +25°C° 0 mm 2 m/s 626 mmHg 26%
    12:00 +27°C° 0 mm 2 m/s 626 mmHg 24%
    13:00 +28°C° 0 mm 2 m/s 625 mmHg 21%
    14:00 +28°C° 0 mm 2 m/s 625 mmHg 21%
    15:00 +27°C° 0 mm 2 m/s 624 mmHg 22%
    16:00 +27°C° 0 mm 1 m/s 624 mmHg 22%
    17:00 +24°C° 0 mm 1 m/s 623 mmHg 26%
    18:00 +22°C° 0 mm 1 m/s 623 mmHg 30%
    19:00 +19°C° 0 mm 1 m/s 623 mmHg 34%
    20:00 +19°C° 0 mm 1 m/s 623 mmHg 34%
    21:00 +18°C° 0 mm 1 m/s 623 mmHg 34%
    22:00 +18°C° 0 mm 1 m/s 623 mmHg 35%
    23:00 +16°C° 0 mm 1 m/s 623 mmHg 36%

    27 Juin, Mercredi

    Heure Température Précipitation Vent Pression Humidité
    00:00 +15°C° 0 mm 1 m/s 623 mmHg 38%
    01:00 +15°C° 0 mm 1 m/s 623 mmHg 40%
    02:00 +14°C° 0 mm 1 m/s 622 mmHg 41%
    03:00 +13°C° 0 mm 1 m/s 622 mmHg 43%
    04:00 +13°C° 0 mm 2 m/s 622 mmHg 44%
    05:00 +13°C° 0 mm 2 m/s 622 mmHg 45%
    06:00 +13°C° 0 mm 2 m/s 623 mmHg 45%
    07:00 +13°C° 0 mm 2 m/s 623 mmHg 46%
    08:00 +16°C° 0 mm 3 m/s 624 mmHg 40%
    09:00 +19°C° 0 mm 4 m/s 625 mmHg 34%
    10:00 +22°C° 0 mm 5 m/s 626 mmHg 28%
    11:00 +25°C° 0 mm 4 m/s 626 mmHg 26%
    12:00 +26°C° 0 mm 3 m/s 625 mmHg 23%
    13:00 +27°C° 0 mm 3 m/s 625 mmHg 21%
    14:00 +27°C° 0 mm 3 m/s 624 mmHg 21%
    15:00 +27°C° 0 mm 2 m/s 624 mmHg 21%
    16:00 +26°C° 0 mm 2 m/s 624 mmHg 21%
    17:00 +24°C° 0 mm 1 m/s 623 mmHg 25%
    18:00 +21°C° 0 mm 1 m/s 623 mmHg 29%
    19:00 +18°C° 0 mm 1 m/s 623 mmHg 33%
    20:00 +18°C° 0 mm 1 m/s 623 mmHg 34%
    21:00 +16°C° 0 mm 1 m/s 623 mmHg 35%
    22:00 +16°C° 0 mm 1 m/s 623 mmHg 36%
    23:00 +15°C° 0 mm 1 m/s 623 mmHg 37%
    Voir plus